Weather past 2 weeks in Amsterdam Island, French Southern Territories

Now
53 °F

Cool.


Feels Like: 52 °F
Forecast: 58 / 61 °F
Wind: 6 mph from Southwest

Location: Martin De Vivies Ile Amsterdam

Current Time: May 22, 2015 at 9:17:22 PM

Latest Report: May 22, 2015 at 8:00 PM


Visibility: N/A

Pressure: 30.27 "Hg

Humidity: 83%

Dew point: 48 °F

Location of Amsterdam IslandLocation

Historic Weather in Amsterdam Island — Graph

°F

Amsterdam Island temperature yesterday

Maximum temperature yesterday: 58 °F (at 11:00 PM)
Minimum temperature yesterday: 46 °F (at 12:00 AM)
Average temperature yesterday: 53 °F

Past Weeks' High & Low Weather Summary

 TemperatureHumidityPressure
High67 °F (May 8, 11:00 AM)97% (May 7, 8:00 PM)30.65 "Hg (May 7, 8:00 PM)
Low45 °F (May 13, 12:00 AM)49% (May 10, 11:00 AM)29.67 "Hg (May 11, 8:00 PM)
Average56 °F76%30.25 "Hg
* Reported May 7 8:00 PM — May 22 8:00 PM, Amsterdam Island, Weather by CustomWeather, © 2015

Note: Actual official high and low records may vary slightly from our data, if they occured in-between our weather recording intervals... More about our weather records

Advertising

Amsterdam Island weather history for previous 24 hours

 ConditionsComfort  
Time TempWeatherWind HumidityBarometerVisibility
8:00 PM
Fri, May 22
53 °FCool.6 mph83%30.27 "HgN/A
7:00 PM53 °FCool.3 mph85%30.26 "HgN/A
6:00 PM54 °FCool.6 mph86%30.26 "HgN/A
5:00 PM55 °FCool.7 mph81%30.25 "HgN/A
4:00 PM59 °FCool.7 mph76%30.25 "HgN/A
3:00 PM61 °FCool.10 mph78%30.24 "HgN/A
2:00 PM63 °FMild.12 mph72%30.23 "HgN/A
1:00 PM63 °FMild.13 mph71%30.23 "HgN/A
12:00 PM63 °FMild.10 mph73%30.24 "HgN/A
11:00 AM63 °FMild.13 mph73%30.26 "HgN/A
10:00 AM61 °FCool.14 mph72%30.26 "HgN/A
9:00 AM61 °FCool.13 mph78%30.25 "HgN/A
8:00 AM58 °FCool.12 mph88%30.24 "HgN/A
7:00 AM58 °FCool.15 mph91%30.22 "HgN/A
6:00 AM59 °FCool.18 mph92%30.20 "HgN/A
5:00 AM60 °FCool.17 mph91%30.19 "HgN/A
4:00 AM59 °FCool.16 mph90%30.19 "HgN/A
3:00 AM59 °FCool.20 mph87%30.20 "HgN/A
1:00 AM59 °FCool.18 mph85%30.21 "HgN/A
12:00 AM59 °FCool.20 mph83%30.23 "HgN/A
11:00 PM
Thu, May 21
58 °FCool.20 mph80%30.23 "HgN/A
10:00 PM58 °FCool.18 mph78%30.24 "HgN/A
9:00 PM57 °FCool.17 mph75%30.26 "HgN/A
Weather by CustomWeather, © 2015

See weather overviewHow to use our weather pages